Amateur Radio Satellites - All Passes

Search period start: 18 June 2013 21:16
Search period end: 19 June 2013 21:16
Location: Big Meadows, 38.5260°N, 78.4400°W

Satellite Date Start Highest point End Downlink Frequencies (MHz)
Time Altitude Azimuth
JAS-2 18 Jun 21:16:43 21:23:38 43° 70° (ENE) 21:29:54 435.800 - 435.900 CW/SSB, 435.910 FM
RS-15 18 Jun 21:23:33 21:34:40 78° 58° (ENE) 21:45:33 29.354 - 29.394 USB, Beacon 29.352 USB
ISS 18 Jun 21:26:47 21:28:28 13° 18° (NNE) 21:30:10 145.800 FM
JAS-1B 18 Jun 21:42:29 21:46:00 14° 267° (W) 21:49:17 435.800 - 435.900 CW/SSB
Oscar 11 18 Jun 21:43:40 21:47:37 34° 71° (ENE) 21:51:35 145.825 FM, Beacon 2401.500 USB
PANSAT 18 Jun 21:49:58 21:51:08 11° 164° (SSE) 21:52:17 not established
OPAL 18 Jun 21:58:20 22:01:53 20° 63° (ENE) 22:05:25 ?
HO-68 18 Jun 22:31:30 22:38:20 49° 260° (W) 22:45:14 435.675 MHz FM
Saudisat 1A 18 Jun 22:31:40 22:36:05 54° 117° (ESE) 22:40:35 436.775 MHz
JAS-2 18 Jun 23:01:55 23:08:37 35° 263° (W) 23:14:48 435.800 - 435.900 CW/SSB, 435.910 FM
ISS 18 Jun 23:02:27 23:05:43 59° 37° (NE) 23:08:58 145.800 FM
AO-40 18 Jun 23:11:28 00:58:25 47° 202° (SSW) 07:01:53 Beacon 2401.320
Oscar 11 18 Jun 23:20:49 23:23:55 19° 266° (W) 23:27:03 145.825 FM, Beacon 2401.500 USB
PANSAT 18 Jun 23:28:07 23:30:48 18° 176° (S) 23:33:30 not established
OPAL 18 Jun 23:35:34 23:40:25 47° 258° (WSW) 23:45:15 ?
RS-15 18 Jun 23:37:30 23:45:44 26° 258° (WSW) 23:53:57 29.354 - 29.394 USB, Beacon 29.352 USB
Saudisat 1A 19 Jun 00:12:51 00:16:07 19° 315° (NW) 00:19:24 436.775 MHz
ISS 19 Jun 00:40:28 00:42:02 13° 232° (SW) 00:43:35 145.800 FM
PCSat 19 Jun 00:47:00 00:51:51 35° 110° (ESE) 00:56:44 145.825 MHz
Oscar 10/S400 19 Jun 01:03:50 08:01:02 72° 146° (SSE) 11:33:01 145.825 - 145.975 CW/USB, Beacon 145.810 USB
SO-50 19 Jun 01:08:00 01:12:05 29° 113° (ESE) 01:16:08 436.795 FM
PANSAT 19 Jun 01:08:09 01:10:33 16° 189° (S) 01:12:56 not established
Sapphire 19 Jun 01:20:55 01:26:16 68° 115° (ESE) 01:31:39 437.095 MHz 1200 baud AX-25 AFSK
KITSAT 1 19 Jun 01:42:16 01:49:00 28° 44° (NE) 01:55:42 435.175 FM
ITAMSAT 1 19 Jun 01:57:41 01:59:49 12° 90° (E) 02:01:56 435.822 SSB
AO-27 19 Jun 01:58:26 02:00:50 13° 91° (E) 02:03:14 436.795 MHz FM
Oscar 16 19 Jun 02:16:54 02:21:21 29° 96° (E) 02:25:47 437.025 USB, Beacon 2401.1428
Uribyol 2 19 Jun 02:29:26 02:33:54 28° 96° (E) 02:38:19 436.500 FM
PCSat 19 Jun 02:30:28 02:35:15 32° 307° (NW) 02:40:05 145.825 MHz
AO-Echo 19 Jun 02:40:14 02:42:16 12° 90° (E) 02:44:18 ?
SO-50 19 Jun 02:48:20 02:52:37 32° 309° (NW) 02:56:52 436.795 FM
Sapphire 19 Jun 03:06:28 03:10:12 19° 313° (NW) 03:13:59 437.095 MHz 1200 baud AX-25 AFSK
Oscar 19 19 Jun 03:10:36 03:15:45 86° 103° (ESE) 03:20:52 437.125 CW, 437.150 USB
Gurwin Techsat 1B 19 Jun 03:31:10 03:33:35 13° 90° (E) 03:36:00 435.225 FM
ITAMSAT 1 19 Jun 03:34:36 03:39:49 72° 286° (WNW) 03:45:00 435.822 SSB
AO-27 19 Jun 03:35:37 03:40:50 69° 286° (WNW) 03:46:00 436.795 MHz FM
KITSAT 1 19 Jun 03:37:03 03:45:11 75° 244° (WSW) 03:53:15 435.175 FM
Oscar 16 19 Jun 03:56:13 04:00:39 31° 292° (WNW) 04:05:05 437.025 USB, Beacon 2401.1428
Uribyol 2 19 Jun 04:08:44 04:13:22 33° 292° (WNW) 04:17:57 436.500 FM
AO-Echo 19 Jun 04:16:20 04:21:29 74° 285° (WNW) 04:26:45 ?
TMSAT-1 19 Jun 04:28:54 04:33:39 33° 97° (E) 04:38:23 436.925 FM
UOSAT-12 19 Jun 04:30:37 04:35:05 70° 119° (ESE) 04:39:37 437.025 FM, 437.400 FM
Uosat F 19 Jun 04:35:40 04:40:42 62° 101° (ESE) 04:45:41 435.120 FM
AO-7 19 Jun 04:35:59 04:40:29 15° 90° (E) 04:44:56 29.400 - 29.500 MHz
Oscar 19 19 Jun 04:52:49 04:54:21 11° 300° (WNW) 04:55:53 437.125 CW, 437.150 USB
Gurwin Techsat 1B 19 Jun 05:08:45 05:14:03 70° 286° (WNW) 05:19:19 435.225 FM
MaSat-1 19 Jun 05:09:19 05:10:31 13° 57° (ENE) 05:11:43 437.345 MHz
KITSAT 1 19 Jun 05:36:13 05:39:11 12° 261° (W) 05:42:09 435.175 FM
STRAND 1 19 Jun 06:01:20 06:05:42 29° 68° (ENE) 06:10:05 ?
TMSAT-1 19 Jun 06:08:57 06:13:28 29° 292° (WNW) 06:17:59 436.925 FM
UOSAT-12 19 Jun 06:13:05 06:15:45 15° 317° (NW) 06:18:26 437.025 FM, 437.400 FM
Uosat F 19 Jun 06:16:04 06:18:58 16° 297° (WNW) 06:21:52 435.120 FM
AO-7 19 Jun 06:25:52 06:34:18 85° 107° (ESE) 06:42:39 29.400 - 29.500 MHz
MaSat-1 19 Jun 06:51:01 06:52:08 12° 253° (WSW) 06:53:15 437.345 MHz
Saudisat 1A 19 Jun 07:00:39 07:04:41 30° 50° (NE) 07:08:37 436.775 MHz
JAS-1B 19 Jun 07:33:55 07:38:13 20° 95° (E) 07:42:54 435.800 - 435.900 CW/SSB
STRAND 1 19 Jun 07:40:17 07:44:47 31° 263° (W) 07:49:21 ?
Hamsat 19 Jun 07:52:32 07:56:45 45° 99° (E) 08:00:54 145.90 MHz
AO-7 19 Jun 08:20:13 08:26:04 22° 306° (NW) 08:31:55 29.400 - 29.500 MHz
Saudisat 1A 19 Jun 08:40:27 08:44:17 28° 247° (WSW) 08:48:02 436.775 MHz
SO-67 19 Jun 08:51:44 08:55:20 73° 101° (E) 08:58:53 435.3500 MHz FM
JAS-1B 19 Jun 09:23:24 09:29:06 55° 288° (WNW) 09:35:35 435.800 - 435.900 CW/SSB
Hamsat 19 Jun 09:29:50 09:32:25 16° 294° (WNW) 09:34:59 145.90 MHz
PCSat 19 Jun 09:36:28 09:40:46 23° 50° (NE) 09:45:02 145.825 MHz
SO-50 19 Jun 09:41:36 09:44:54 19° 46° (NE) 09:48:10 436.795 FM
HO-68 19 Jun 10:00:42 10:07:12 36° 98° (E) 10:13:39 435.675 MHz FM
Sapphire 19 Jun 10:10:32 10:15:39 40° 56° (NE) 10:20:43 437.095 MHz 1200 baud AX-25 AFSK
JAS-2 19 Jun 10:13:22 10:18:09 33° 96° (E) 10:22:46 435.800 - 435.900 CW/SSB, 435.910 FM
Oscar 11 19 Jun 11:08:44 11:13:08 87° 104° (ESE) 11:17:30 145.825 FM, Beacon 2401.500 USB
PCSat 19 Jun 11:19:13 11:24:28 51° 247° (WSW) 11:29:42 145.825 MHz
SO-50 19 Jun 11:21:26 11:25:47 49° 244° (WSW) 11:30:05 436.795 FM
RS-15 19 Jun 11:43:31 11:55:14 60° 113° (ESE) 12:06:27 29.354 - 29.394 USB, Beacon 29.352 USB
OPAL 19 Jun 11:46:43 11:51:32 49° 102° (ESE) 11:56:21 ?
HO-68 19 Jun 11:48:15 11:54:54 42° 294° (WNW) 12:01:32 435.675 MHz FM
Sapphire 19 Jun 11:54:22 11:58:52 27° 252° (WSW) 12:03:19 437.095 MHz 1200 baud AX-25 AFSK
JAS-2 19 Jun 11:58:44 12:03:09 26° 294° (WNW) 12:07:24 435.800 - 435.900 CW/SSB, 435.910 FM
Oscar 19 19 Jun 12:50:24 12:52:35 13° 61° (ENE) 12:54:47 437.125 CW, 437.150 USB
UOSAT-12 19 Jun 13:01:46 13:06:08 40° 53° (NE) 13:10:29 437.025 FM, 437.400 FM
ITAMSAT 1 19 Jun 13:14:00 13:17:26 18° 63° (ENE) 13:20:52 435.822 SSB
AO-27 19 Jun 13:14:58 13:18:32 19° 64° (ENE) 13:22:06 436.795 MHz FM
OPAL 19 Jun 13:26:38 13:30:03 19° 298° (WNW) 13:33:28 ?
Oscar 16 19 Jun 13:32:30 13:37:14 38° 70° (ENE) 13:41:59 437.025 USB, Beacon 2401.1428
Uribyol 2 19 Jun 13:45:57 13:50:42 37° 69° (ENE) 13:55:29 436.500 FM
AO-Echo 19 Jun 13:52:44 13:54:50 13° 62° (ENE) 13:56:57 ?
RS-15 19 Jun 13:56:55 14:08:04 44° 314° (NW) 14:18:50 29.354 - 29.394 USB, Beacon 29.352 USB
Oscar 19 19 Jun 14:26:06 14:31:16 78° 257° (WSW) 14:36:27 437.125 CW, 437.150 USB
UOSAT-12 19 Jun 14:42:35 14:46:02 21° 249° (WSW) 14:49:29 437.025 FM, 437.400 FM
Gurwin Techsat 1B 19 Jun 14:50:33 14:54:15 20° 64° (ENE) 14:57:58 435.225 FM
ITAMSAT 1 19 Jun 14:51:23 14:56:28 55° 259° (W) 15:01:37 435.822 SSB
AO-27 19 Jun 14:52:34 14:57:37 52° 260° (W) 15:02:44 436.795 MHz FM
Oscar 16 19 Jun 15:12:32 15:16:40 24° 265° (W) 15:20:50 437.025 USB, Beacon 2401.1428
Uribyol 2 19 Jun 15:26:00 15:30:15 25° 265° (W) 15:34:31 436.500 FM
AO-Echo 19 Jun 15:28:22 15:33:01 65° 259° (WSW) 15:37:48 ?
AO-7 19 Jun 15:33:31 15:39:25 22° 54° (NE) 15:45:21 29.400 - 29.500 MHz
ISS 19 Jun 15:43:29 15:46:36 41° 136° (SE) 15:49:43 145.800 FM
Uosat F 19 Jun 15:47:36 15:52:35 73° 74° (ENE) 15:57:37 435.120 FM
TMSAT-1 19 Jun 15:48:17 15:53:16 44° 71° (ENE) 15:58:18 436.925 FM
KITSAT 1 19 Jun 16:11:45 16:16:43 18° 101° (ESE) 16:21:41 435.175 FM
RS-15 19 Jun 16:17:24 16:24:43 18° 346° (NNW) 16:31:51 29.354 - 29.394 USB, Beacon 29.352 USB
Gurwin Techsat 1B 19 Jun 16:28:40 16:33:49 52° 260° (W) 16:39:00 435.225 FM
ISS 19 Jun 17:20:40 17:23:23 23° 332° (NNW) 17:26:07 145.800 FM
AO-7 19 Jun 17:22:53 17:31:14 84° 253° (WSW) 17:39:39 29.400 - 29.500 MHz
TMSAT-1 19 Jun 17:29:25 17:33:23 21° 266° (W) 17:37:23 436.925 FM
Uosat F 19 Jun 17:30:19 17:31:53 11° 270° (W) 17:33:29 435.120 FM
KITSAT 1 19 Jun 18:02:58 18:11:02 86° 299° (WNW) 18:19:12 435.175 FM
STRAND 1 19 Jun 18:16:39 18:17:06 10° 89° (E) 18:17:33 ?
JAS-1B 19 Jun 18:19:59 18:23:50 16° 62° (ENE) 18:27:25 435.800 - 435.900 CW/SSB
RS-15 19 Jun 18:35:05 18:43:13 22° 24° (NNE) 18:51:08 29.354 - 29.394 USB, Beacon 29.352 USB
Hamsat 19 Jun 18:45:28 18:49:10 28° 70° (ENE) 18:52:54 145.90 MHz
AO-7 19 Jun 19:20:51 19:25:05 15° 270° (W) 19:29:21 29.400 - 29.500 MHz
SO-67 19 Jun 19:26:48 19:29:32 21° 70° (ENE) 19:32:17 435.3500 MHz FM
MaSat-1 19 Jun 19:36:31 19:42:04 46° 112° (ESE) 19:46:26 437.345 MHz
STRAND 1 19 Jun 19:51:42 19:56:53 83° 284° (WNW) 20:02:02 ?
KITSAT 1 19 Jun 20:01:38 20:07:38 22° 321° (NW) 20:13:42 435.175 FM
JAS-1B 19 Jun 20:06:53 20:14:02 75° 256° (WSW) 20:20:08 435.800 - 435.900 CW/SSB
Hamsat 19 Jun 20:21:43 20:25:11 23° 265° (W) 20:28:43 145.90 MHz
JAS-2 19 Jun 20:24:49 20:29:14 18° 62° (ENE) 20:33:24 435.800 - 435.900 CW/SSB, 435.910 FM
HO-68 19 Jun 20:28:50 20:34:17 24° 60° (ENE) 20:39:45 435.675 MHz FM
ISS 19 Jun 20:38:12 20:39:00 11° 13° (NNE) 20:39:47 145.800 FM
RS-15 19 Jun 20:47:32 20:58:32 62° 53° (NE) 21:09:15 29.354 - 29.394 USB, Beacon 29.352 USB
SO-67 19 Jun 21:00:11 21:02:53 20° 265° (W) 21:05:36 435.3500 MHz FM
Saudisat 1A 19 Jun 21:10:04 21:10:57 11° 106° (ESE) 21:11:50 436.775 MHz

Developed and maintained by Chris Peat, Heavens-Above GmbH. Please read the updated FAQ before sending e-mail. Imprint. DLR
